Von / Nach
Hinflug - Rückflug
Erwachsene / Kinder
Promocode
Nächste Ankünfte Flughafen St.Gallen-Altenrhein

ZeitErw.vonFlugInfo
09:1009:10WienPE101
planmässig
17:3517:35WienPE105
planmässig
20:5520:55WienPE107
planmässig
Nächste Abflüge Flughafen St.Gallen-Altenrhein

ZeitGeplantnachFlugInfo
09:5009:50WienPE102
planmässig
18:1518:15WienPE106
planmässig

Flugplan

Bitte wählen Sie Ihren gewünschten Abflug- und Zielflughafen aus.


Live aus Altenrhein
LIVE
LSZR 210550Z 32003KT 7000 OVC013 M00/M02 Q1018 NOSIG RMK B
Zeitraffer heute
2019-01-21 00:14:24
LSZR 202250Z AUTO VRB01KT 4700 BR OVC060 M02/M03 Q1017
Zeitraffer gestern
2019-01-20 00:14:30
LSZR 192250Z AUTO 10001KT 5000 NSC M05/M06 Q1013

Wien

Ab EUR 119.- pro Strecke.

 

Jetzt buchen

Ibiza

Ab EUR 279.- hin & zurück.

 

Jetzt buchen

Mallorca

Ab EUR 349.- hin & zurück.

 

Jetzt buchen

Pula

Ab EUR 399.- hin & zurück.

 

Jetzt buchen

Sardinien

Ab EUR 299.- hin & zurück.

 

Jetzt buchen

General Aviation

Business & General Aviation LSZR.

 

More information

 

 Shuttlebus


Nutzen Sie unseren

Shuttlebus zwischen Altenrhein

und Dornbirn & Bregenz.

 

Mehr dazu

 

People's Online-Shop


Von der Überraschung an

Bord über Badetücher bis

zum Flugzeugmodell.

 

Mehr dazu


News


Aktuelles von People's

und dem Flughafen

St.Gallen-Altenrhein.

 

Mehr dazu

 

Ad-hoc Charter


Chartern Sie eine unserer

Embraer170 für Ihren eigenen

Anlass oder ACMI-Einsätze.


Mehr dazu

  

 

Teile dein People's-Erlebnis mit uns:

 

#peoplesairline bei Instagram